iso_date,epoch_date,Year,Hour,Min,DOY,POS_DOY,Lat,Lon,BP,Ts,Ta,has_bp,has_ts,has_ta,BuoyID,Buoy_Type,Buoy_Owner,Logistics,Hemisphere
2014-09-02T00:27:21Z,1409617642,2014,0,28,245.019,245.019,60.0048,-168.0034,1012.3,14.92,-999.0,yes,yes,no,300234060237170,UPTEMPO,PSC-UPTEMPO,Mirai,North
2014-09-02T00:33:07Z,1409617987,2014,0,33,245.023,245.023,60.0212,-168.009,1012.3,14.5,-999.0,yes,yes,no,300234060237170,UPTEMPO,PSC-UPTEMPO,Mirai,North
2014-09-02T00:37:26Z,1409618246,2014,0,37,245.026,245.026,60.0374,-168.0144,1012.3,14.16,-999.0,yes,yes,no,300234060237170,UPTEMPO,PSC-UPTEMPO,Mirai,North
2014-09-02T00:43:12Z,1409618592,2014,0,43,245.03,245.03,60.0536,-168.02,1012.4,13.84,-999.0,yes,yes,no,300234060237170,UPTEMPO,PSC-UPTEMPO,Mirai,North
2014-09-02T00:47:31Z,1409618851,2014,0,48,245.033,245.033,60.0702,-168.0256,1012.3,13.6,-999.0,yes,yes,no,300234060237170,UPTEMPO,PSC-UPTEMPO,Mirai,North
2014-09-02T00:51:50Z,1409619110,2014,0,52,245.036,245.036,60.0868,-168.026,1012.2,13.36,-999.0,yes,yes,no,300234060237170,UPTEMPO,PSC-UPTEMPO,Mirai,North
2014-09-02T00:57:36Z,1409619456,2014,0,58,245.04,245.04,60.1034,-168.0244,1012.0,13.16,-999.0,yes,yes,no,300234060237170,UPTEMPO,PSC-UPTEMPO,Mirai,North
2014-09-02T01:03:21Z,1409619802,2014,1,3,245.044,245.044,60.1202,-168.0214,1012.0,13.04,-999.0,yes,yes,no,300234060237170,UPTEMPO,PSC-UPTEMPO,Mirai,North
2014-09-02T01:07:40Z,1409620061,2014,1,7,245.047,245.047,60.1366,-168.0186,1012.0,12.96,-999.0,yes,yes,no,300234060237170,UPTEMPO,PSC-UPTEMPO,Mirai,North
2014-09-02T01:13:26Z,1409620406,2014,1,13,245.051,245.051,60.1534,-168.0156,1011.9,12.86,-999.0,yes,yes,no,300234060237170,UPTEMPO,PSC-UPTEMPO,Mirai,North
2014-09-02T01:19:12Z,1409620752,2014,1,19,245.055,245.055,60.1762,-168.012,1011.8,12.84,-999.0,yes,yes,no,300234060237170,UPTEMPO,PSC-UPTEMPO,Mirai,North
2014-09-02T01:59:31Z,1409623171,2014,2,0,245.083,245.083,60.3124,-167.9688,1011.3,12.44,-999.0,yes,yes,no,300234060237170,UPTEMPO,PSC-UPTEMPO,Mirai,North
2014-09-02T03:00:00Z,1409626800,2014,3,0,245.125,245.125,60.5092,-167.8764,1011.1,12.28,-999.0,yes,yes,no,300234060237170,UPTEMPO,PSC-UPTEMPO,Mirai,North
2014-09-02T04:00:28Z,1409630429,2014,4,0,245.167,245.167,60.709,-167.801,1010.8,12.12,-999.0,yes,yes,no,300234060237170,UPTEMPO,PSC-UPTEMPO,Mirai,North
2014-09-02T04:59:31Z,1409633971,2014,5,0,245.208,245.208,60.91,-167.722,1010.4,11.96,-999.0,yes,yes,no,300234060237170,UPTEMPO,PSC-UPTEMPO,Mirai,North
2014-09-02T06:00:00Z,1409637600,2014,6,0,245.25,245.25,61.1118,-167.6486,1010.5,11.76,-999.0,yes,yes,no,300234060237170,UPTEMPO,PSC-UPTEMPO,Mirai,North
2014-09-02T07:00:28Z,1409641229,2014,7,0,245.292,245.292,61.3136,-167.5582,1010.8,11.64,-999.0,yes,yes,no,300234060237170,UPTEMPO,PSC-UPTEMPO,Mirai,North
2014-09-02T07:59:31Z,1409644771,2014,8,0,245.333,245.333,61.5156,-167.4776,1011.4,11.4,-999.0,yes,yes,no,300234060237170,UPTEMPO,PSC-UPTEMPO,Mirai,North
2014-09-02T09:00:00Z,1409648400,2014,9,0,245.375,245.375,61.7168,-167.3938,1012.0,10.9,-999.0,yes,yes,no,300234060237170,UPTEMPO,PSC-UPTEMPO,Mirai,North
2014-09-02T10:00:28Z,1409652029,2014,10,0,245.417,245.417,61.9204,-167.364,1012.8,10.4,-999.0,yes,yes,no,300234060237170,UPTEMPO,PSC-UPTEMPO,Mirai,North
2014-09-02T10:59:31Z,1409655571,2014,11,0,245.458,245.458,62.1252,-167.3698,1013.2,10.12,-999.0,yes,yes,no,300234060237170,UPTEMPO,PSC-UPTEMPO,Mirai,North
2014-09-02T12:00:00Z,1409659200,2014,12,0,245.5,245.5,62.317,-167.3256,1013.6,9.72,-999.0,yes,yes,no,300234060237170,UPTEMPO,PSC-UPTEMPO,Mirai,North
2014-09-02T13:00:28Z,1409662829,2014,13,0,245.542,245.542,62.5212,-167.3464,1014.0,9.2,-999.0,yes,yes,no,300234060237170,UPTEMPO,PSC-UPTEMPO,Mirai,North
2014-09-02T13:59:31Z,1409666371,2014,14,0,245.583,245.583,62.7272,-167.3436,1014.1,8.6,-999.0,yes,yes,no,300234060237170,UPTEMPO,PSC-UPTEMPO,Mirai,North
2014-09-02T15:00:00Z,1409670000,2014,15,0,245.625,245.625,62.932,-167.3768,1014.3,8.12,-999.0,yes,yes,no,300234060237170,UPTEMPO,PSC-UPTEMPO,Mirai,North
2014-09-02T16:00:28Z,1409673629,2014,16,0,245.667,245.667,63.1346,-167.5008,1014.5,7.86,-999.0,yes,yes,no,300234060237170,UPTEMPO,PSC-UPTEMPO,Mirai,North
2014-09-02T16:59:31Z,1409677171,2014,17,0,245.708,245.708,63.3388,-167.6274,1014.6,7.72,-999.0,yes,yes,no,300234060237170,UPTEMPO,PSC-UPTEMPO,Mirai,North
2014-09-02T18:00:00Z,1409680800,2014,18,0,245.75,245.75,63.5436,-167.7568,1014.7,7.72,-999.0,yes,yes,no,300234060237170,UPTEMPO,PSC-UPTEMPO,Mirai,North
2014-09-14T16:36:28Z,1410712589,2014,16,37,257.692,257.692,74.9126,-161.5834,1020.7,0.36,-999.0,yes,yes,no,300234060237170,UPTEMPO,PSC-UPTEMPO,Mirai,North
2014-09-14T16:42:14Z,1410712934,2014,16,42,257.696,257.696,74.9124,-161.5828,1020.8,0.36,-999.0,yes,yes,no,300234060237170,UPTEMPO,PSC-UPTEMPO,Mirai,North
2014-09-14T16:46:33Z,1410713194,2014,16,46,257.699,257.699,74.9122,-161.5822,1020.7,0.32,-999.0,yes,yes,no,300234060237170,UPTEMPO,PSC-UPTEMPO,Mirai,North
2014-09-14T16:52:19Z,1410713539,2014,16,52,257.703,257.703,74.912,-161.5816,1020.7,0.28,-999.0,yes,yes,no,300234060237170,UPTEMPO,PSC-UPTEMPO,Mirai,North
2014-09-14T16:56:38Z,1410713798,2014,16,57,257.706,257.706,74.9118,-161.581,1020.8,0.28,-999.0,yes,yes,no,300234060237170,UPTEMPO,PSC-UPTEMPO,Mirai,North
2014-09-14T17:00:57Z,1410714058,2014,17,1,257.709,257.709,74.9116,-161.5804,1020.6,0.28,-999.0,yes,yes,no,300234060237170,UPTEMPO,PSC-UPTEMPO,Mirai,North
2014-09-14T17:06:43Z,1410714403,2014,17,7,257.713,257.713,74.9114,-161.5798,1020.8,0.28,-999.0,yes,yes,no,300234060237170,UPTEMPO,PSC-UPTEMPO,Mirai,North
2014-09-14T17:12:28Z,1410714749,2014,17,12,257.717,257.717,74.9112,-161.5792,1020.7,0.28,-999.0,yes,yes,no,300234060237170,UPTEMPO,PSC-UPTEMPO,Mirai,North
2014-09-14T17:15:21Z,1410714922,2014,17,16,257.719,257.719,74.911,-161.5788,1020.7,0.28,-999.0,yes,yes,no,300234060237170,UPTEMPO,PSC-UPTEMPO,Mirai,North
2014-09-14T17:22:33Z,1410715354,2014,17,22,257.724,257.724,74.9108,-161.5782,1020.6,0.28,-999.0,yes,yes,no,300234060237170,UPTEMPO,PSC-UPTEMPO,Mirai,North
2014-09-14T17:28:19Z,1410715699,2014,17,28,257.728,257.728,74.9104,-161.5776,1020.7,0.28,-999.0,yes,yes,no,300234060237170,UPTEMPO,PSC-UPTEMPO,Mirai,North
2014-09-14T18:00:00Z,1410717600,2014,18,0,257.75,257.75,74.9088,-161.5752,1020.7,0.28,-999.0,yes,yes,no,300234060237170,UPTEMPO,PSC-UPTEMPO,Mirai,North
2014-09-14T19:00:28Z,1410721229,2014,19,0,257.792,257.792,74.906,-161.5728,1020.7,0.28,-999.0,yes,yes,no,300234060237170,UPTEMPO,PSC-UPTEMPO,Mirai,North
2014-09-14T19:59:31Z,1410724771,2014,20,0,257.833,257.833,74.9038,-161.5726,1020.7,0.26,-999.0,yes,yes,no,300234060237170,UPTEMPO,PSC-UPTEMPO,Mirai,North
2014-09-14T21:00:00Z,1410728400,2014,21,0,257.875,257.875,74.9022,-161.5732,1020.5,0.24,-999.0,yes,yes,no,300234060237170,UPTEMPO,PSC-UPTEMPO,Mirai,North
2014-09-14T22:00:28Z,1410732029,2014,22,0,257.917,257.917,74.8998,-161.5746,1020.2,0.24,-999.0,yes,yes,no,300234060237170,UPTEMPO,PSC-UPTEMPO,Mirai,North
2014-09-15T00:00:00Z,1410739200,2014,0,0,258.0,258.0,74.8936,-161.5848,1020.0,0.28,-999.0,yes,yes,no,300234060237170,UPTEMPO,PSC-UPTEMPO,Mirai,North
2014-09-15T01:00:28Z,1410742829,2014,1,0,258.042,258.042,74.8922,-161.5938,1020.0,0.28,-999.0,yes,yes,no,300234060237170,UPTEMPO,PSC-UPTEMPO,Mirai,North
2014-09-15T01:59:31Z,1410746371,2014,2,0,258.083,258.083,74.8918,-161.6026,1019.8,0.28,-999.0,yes,yes,no,300234060237170,UPTEMPO,PSC-UPTEMPO,Mirai,North
2014-09-15T03:00:00Z,1410750000,2014,3,0,258.125,258.125,74.8914,-161.6096,1019.3,0.28,-999.0,yes,yes,no,300234060237170,UPTEMPO,PSC-UPTEMPO,Mirai,North
2014-09-15T04:00:28Z,1410753629,2014,4,0,258.167,258.167,74.8908,-161.6144,1019.3,0.28,-999.0,yes,yes,no,300234060237170,UPTEMPO,PSC-UPTEMPO,Mirai,North
2014-09-15T04:59:31Z,1410757171,2014,5,0,258.208,258.208,74.8892,-161.6188,1019.1,0.24,-999.0,yes,yes,no,300234060237170,UPTEMPO,PSC-UPTEMPO,Mirai,North
2014-09-15T06:00:00Z,1410760800,2014,6,0,258.25,258.25,74.8884,-161.6226,1018.9,0.28,-999.0,yes,yes,no,300234060237170,UPTEMPO,PSC-UPTEMPO,Mirai,North
2014-09-15T07:00:28Z,1410764429,2014,7,0,258.292,258.292,74.887,-161.6266,1019.1,0.28,-999.0,yes,yes,no,300234060237170,UPTEMPO,PSC-UPTEMPO,Mirai,North
2014-09-15T07:59:31Z,1410767971,2014,8,0,258.333,258.333,74.886,-161.6324,1019.5,0.36,-999.0,yes,yes,no,300234060237170,UPTEMPO,PSC-UPTEMPO,Mirai,North
2014-09-15T09:00:00Z,1410771600,2014,9,0,258.375,258.375,74.8848,-161.6362,1019.5,0.36,-999.0,yes,yes,no,300234060237170,UPTEMPO,PSC-UPTEMPO,Mirai,North
2014-09-15T10:00:28Z,1410775229,2014,10,0,258.417,258.417,74.8828,-161.641,1019.2,0.36,-999.0,yes,yes,no,300234060237170,UPTEMPO,PSC-UPTEMPO,Mirai,North
2014-09-15T10:59:31Z,1410778771,2014,11,0,258.458,258.458,74.8804,-161.649,1019.2,0.28,-999.0,yes,yes,no,300234060237170,UPTEMPO,PSC-UPTEMPO,Mirai,North
2014-09-15T12:00:00Z,1410782400,2014,12,0,258.5,258.5,74.8784,-161.6604,1018.9,0.28,-999.0,yes,yes,no,300234060237170,UPTEMPO,PSC-UPTEMPO,Mirai,North
2014-09-15T13:00:28Z,1410786029,2014,13,0,258.542,258.542,74.8764,-161.6752,1018.5,0.28,-999.0,yes,yes,no,300234060237170,UPTEMPO,PSC-UPTEMPO,Mirai,North
2014-09-15T13:59:31Z,1410789571,2014,14,0,258.583,258.583,74.8754,-161.6908,1018.2,0.28,-999.0,yes,yes,no,300234060237170,UPTEMPO,PSC-UPTEMPO,Mirai,North
2014-09-15T15:00:00Z,1410793200,2014,15,0,258.625,258.625,74.8748,-161.7072,1018.0,0.28,-999.0,yes,yes,no,300234060237170,UPTEMPO,PSC-UPTEMPO,Mirai,North
2014-09-15T16:00:28Z,1410796829,2014,16,0,258.667,258.667,74.8748,-161.7238,1017.9,0.28,-999.0,yes,yes,no,300234060237170,UPTEMPO,PSC-UPTEMPO,Mirai,North
2014-09-15T16:59:31Z,1410800371,2014,17,0,258.708,258.708,74.8754,-161.7388,1017.7,0.28,-999.0,yes,yes,no,300234060237170,UPTEMPO,PSC-UPTEMPO,Mirai,North
2014-09-15T18:00:00Z,1410804000,2014,18,0,258.75,258.75,74.876,-161.7516,1017.7,0.24,-999.0,yes,yes,no,300234060237170,UPTEMPO,PSC-UPTEMPO,Mirai,North
2014-09-15T19:00:28Z,1410807629,2014,19,0,258.792,258.792,74.8766,-161.7648,1017.5,0.26,-999.0,yes,yes,no,300234060237170,UPTEMPO,PSC-UPTEMPO,Mirai,North
2014-09-15T19:59:31Z,1410811171,2014,20,0,258.833,258.833,74.8774,-161.7782,1017.3,0.28,-999.0,yes,yes,no,300234060237170,UPTEMPO,PSC-UPTEMPO,Mirai,North
2014-09-15T21:00:00Z,1410814800,2014,21,0,258.875,258.875,74.8782,-161.79,1017.3,0.36,-999.0,yes,yes,no,300234060237170,UPTEMPO,PSC-UPTEMPO,Mirai,North
2014-09-15T22:00:28Z,1410818429,2014,22,0,258.917,258.917,74.879,-161.8028,1017.1,0.36,-999.0,yes,yes,no,300234060237170,UPTEMPO,PSC-UPTEMPO,Mirai,North
2014-09-15T22:59:31Z,1410821971,2014,23,0,258.958,258.958,74.88,-161.8186,1016.9,0.26,-999.0,yes,yes,no,300234060237170,UPTEMPO,PSC-UPTEMPO,Mirai,North
2014-09-16T00:00:00Z,1410825600,2014,0,0,259.0,259.0,74.8816,-161.8374,1016.4,0.26,-999.0,yes,yes,no,300234060237170,UPTEMPO,PSC-UPTEMPO,Mirai,North
2014-09-16T01:00:28Z,1410829229,2014,1,0,259.042,259.042,74.8842,-161.8576,1016.3,0.28,-999.0,yes,yes,no,300234060237170,UPTEMPO,PSC-UPTEMPO,Mirai,North
2014-09-16T01:59:31Z,1410832771,2014,2,0,259.083,259.083,74.8876,-161.8762,1016.4,0.28,-999.0,yes,yes,no,300234060237170,UPTEMPO,PSC-UPTEMPO,Mirai,North
2014-09-16T03:00:00Z,1410836400,2014,3,0,259.125,259.125,74.8916,-161.8938,1016.2,0.28,-999.0,yes,yes,no,300234060237170,UPTEMPO,PSC-UPTEMPO,Mirai,North
2014-09-16T04:00:28Z,1410840029,2014,4,0,259.167,259.167,74.8962,-161.9062,1015.8,0.28,-999.0,yes,yes,no,300234060237170,UPTEMPO,PSC-UPTEMPO,Mirai,North
2014-09-16T04:59:31Z,1410843571,2014,5,0,259.208,259.208,74.9004,-161.9192,1015.7,0.28,-999.0,yes,yes,no,300234060237170,UPTEMPO,PSC-UPTEMPO,Mirai,North
2014-09-16T06:00:00Z,1410847200,2014,6,0,259.25,259.25,74.9042,-161.9336,1015.6,0.28,-999.0,yes,yes,no,300234060237170,UPTEMPO,PSC-UPTEMPO,Mirai,North
2014-09-16T07:00:28Z,1410850829,2014,7,0,259.292,259.292,74.9084,-161.9466,1015.3,0.26,-999.0,yes,yes,no,300234060237170,UPTEMPO,PSC-UPTEMPO,Mirai,North
2014-09-16T07:59:31Z,1410854371,2014,8,0,259.333,259.333,74.9124,-161.9588,1015.4,0.26,-999.0,yes,yes,no,300234060237170,UPTEMPO,PSC-UPTEMPO,Mirai,North
2014-09-16T09:00:00Z,1410858000,2014,9,0,259.375,259.375,74.9164,-161.9714,1015.4,0.28,-999.0,yes,yes,no,300234060237170,UPTEMPO,PSC-UPTEMPO,Mirai,North
2014-09-16T10:00:28Z,1410861629,2014,10,0,259.417,259.417,74.9202,-161.9806,1015.1,0.28,-999.0,yes,yes,no,300234060237170,UPTEMPO,PSC-UPTEMPO,Mirai,North
2014-09-16T10:59:31Z,1410865171,2014,11,0,259.458,259.458,74.9242,-161.9906,1015.0,0.26,-999.0,yes,yes,no,300234060237170,UPTEMPO,PSC-UPTEMPO,Mirai,North
2014-09-16T12:00:00Z,1410868800,2014,12,0,259.5,259.5,74.9284,-162.0022,1014.8,0.24,-999.0,yes,yes,no,300234060237170,UPTEMPO,PSC-UPTEMPO,Mirai,North
2014-09-16T13:00:28Z,1410872429,2014,13,0,259.542,259.542,74.9328,-162.0134,1014.4,0.24,-999.0,yes,yes,no,300234060237170,UPTEMPO,PSC-UPTEMPO,Mirai,North
2014-09-16T13:59:31Z,1410875971,2014,14,0,259.583,259.583,74.9376,-162.0258,1014.1,0.24,-999.0,yes,yes,no,300234060237170,UPTEMPO,PSC-UPTEMPO,Mirai,North
2014-09-16T15:00:00Z,1410879600,2014,15,0,259.625,259.625,74.9424,-162.0376,1013.9,0.24,-999.0,yes,yes,no,300234060237170,UPTEMPO,PSC-UPTEMPO,Mirai,North
2014-09-16T16:00:28Z,1410883229,2014,16,0,259.667,259.667,74.948,-162.0482,1013.8,0.24,-999.0,yes,yes,no,300234060237170,UPTEMPO,PSC-UPTEMPO,Mirai,North
2014-09-16T16:59:31Z,1410886771,2014,17,0,259.708,259.708,74.9534,-162.0604,1013.6,0.24,-999.0,yes,yes,no,300234060237170,UPTEMPO,PSC-UPTEMPO,Mirai,North
2014-09-16T18:00:00Z,1410890400,2014,18,0,259.75,259.75,74.9588,-162.073,1013.7,0.24,-999.0,yes,yes,no,300234060237170,UPTEMPO,PSC-UPTEMPO,Mirai,North
2014-09-16T19:00:28Z,1410894029,2014,19,0,259.792,259.792,74.964,-162.0832,1013.6,0.24,-999.0,yes,yes,no,300234060237170,UPTEMPO,PSC-UPTEMPO,Mirai,North
2014-09-16T19:59:31Z,1410897571,2014,20,0,259.833,259.833,74.969,-162.091,1013.6,0.24,-999.0,yes,yes,no,300234060237170,UPTEMPO,PSC-UPTEMPO,Mirai,North
2014-09-16T21:00:00Z,1410901200,2014,21,0,259.875,259.875,74.9734,-162.0988,1013.5,0.24,-999.0,yes,yes,no,300234060237170,UPTEMPO,PSC-UPTEMPO,Mirai,North
2014-09-16T22:00:28Z,1410904829,2014,22,0,259.917,259.917,74.9774,-162.1084,1013.4,0.24,-999.0,yes,yes,no,300234060237170,UPTEMPO,PSC-UPTEMPO,Mirai,North
2014-09-17T00:00:00Z,1410912000,2014,0,0,260.0,260.0,74.9856,-162.1356,1013.1,0.26,-999.0,yes,yes,no,300234060237170,UPTEMPO,PSC-UPTEMPO,Mirai,North
2014-09-17T01:00:28Z,1410915629,2014,1,0,260.042,260.042,74.99,-162.1484,1012.9,0.16,-999.0,yes,yes,no,300234060237170,UPTEMPO,PSC-UPTEMPO,Mirai,North
2014-09-17T01:59:31Z,1410919171,2014,2,0,260.083,260.083,74.995,-162.1622,1012.7,0.14,-999.0,yes,yes,no,300234060237170,UPTEMPO,PSC-UPTEMPO,Mirai,North
2014-09-17T03:00:00Z,1410922800,2014,3,0,260.125,260.125,74.9998,-162.1754,1012.4,0.04,-999.0,yes,yes,no,300234060237170,UPTEMPO,PSC-UPTEMPO,Mirai,North
2014-09-17T04:00:28Z,1410926429,2014,4,0,260.167,260.167,75.0042,-162.1882,1012.2,0.04,-999.0,yes,yes,no,300234060237170,UPTEMPO,PSC-UPTEMPO,Mirai,North
2014-09-17T04:59:31Z,1410929971,2014,5,0,260.208,260.208,75.0086,-162.2018,1012.1,0.04,-999.0,yes,yes,no,300234060237170,UPTEMPO,PSC-UPTEMPO,Mirai,North
2014-09-17T06:00:00Z,1410933600,2014,6,0,260.25,260.25,75.0134,-162.2156,1012.0,0.12,-999.0,yes,yes,no,300234060237170,UPTEMPO,PSC-UPTEMPO,Mirai,North
2014-09-17T07:00:28Z,1410937229,2014,7,0,260.292,260.292,75.0182,-162.2306,1011.9,0.24,-999.0,yes,yes,no,300234060237170,UPTEMPO,PSC-UPTEMPO,Mirai,North
2014-09-17T07:59:31Z,1410940771,2014,8,0,260.333,260.333,75.0228,-162.2482,1011.7,0.2,-999.0,yes,yes,no,300234060237170,UPTEMPO,PSC-UPTEMPO,Mirai,North
2014-09-17T09:00:00Z,1410944400,2014,9,0,260.375,260.375,75.0266,-162.2654,1011.7,0.2,-999.0,yes,yes,no,300234060237170,UPTEMPO,PSC-UPTEMPO,Mirai,North
2014-09-17T10:00:28Z,1410948029,2014,10,0,260.417,260.417,75.0304,-162.2836,1011.6,0.12,-999.0,yes,yes,no,300234060237170,UPTEMPO,PSC-UPTEMPO,Mirai,North
2014-09-17T10:59:31Z,1410951571,2014,11,0,260.458,260.458,75.0342,-162.3014,1011.4,-0.04,-999.0,yes,yes,no,300234060237170,UPTEMPO,PSC-UPTEMPO,Mirai,North
2014-09-17T12:00:00Z,1410955200,2014,12,0,260.5,260.5,75.0382,-162.3208,1011.1,-0.08,-999.0,yes,yes,no,300234060237170,UPTEMPO,PSC-UPTEMPO,Mirai,North
2014-09-17T13:00:28Z,1410958829,2014,13,0,260.542,260.542,75.0424,-162.3404,1010.8,-0.16,-999.0,yes,yes,no,300234060237170,UPTEMPO,PSC-UPTEMPO,Mirai,North
2014-09-17T13:59:31Z,1410962371,2014,14,0,260.583,260.583,75.0464,-162.3592,1010.5,-0.12,-999.0,yes,yes,no,300234060237170,UPTEMPO,PSC-UPTEMPO,Mirai,North
2014-09-17T15:00:00Z,1410966000,2014,15,0,260.625,260.625,75.0496,-162.3788,1010.3,-0.08,-999.0,yes,yes,no,300234060237170,UPTEMPO,PSC-UPTEMPO,Mirai,North
2014-09-17T16:00:28Z,1410969629,2014,16,0,260.667,260.667,75.053,-162.4002,1010.3,-0.08,-999.0,yes,yes,no,300234060237170,UPTEMPO,PSC-UPTEMPO,Mirai,North
2014-09-17T16:59:31Z,1410973171,2014,17,0,260.708,260.708,75.057,-162.4214,1010.2,-0.08,-999.0,yes,yes,no,300234060237170,UPTEMPO,PSC-UPTEMPO,Mirai,North
2014-09-17T18:00:00Z,1410976800,2014,18,0,260.75,260.75,75.061,-162.442,1010.4,-0.08,-999.0,yes,yes,no,300234060237170,UPTEMPO,PSC-UPTEMPO,Mirai,North
2014-09-17T19:00:28Z,1410980429,2014,19,0,260.792,260.792,75.0648,-162.4616,1010.2,-0.08,-999.0,yes,yes,no,300234060237170,UPTEMPO,PSC-UPTEMPO,Mirai,North
2014-09-17T19:59:31Z,1410983971,2014,20,0,260.833,260.833,75.068,-162.481,1010.0,-0.12,-999.0,yes,yes,no,300234060237170,UPTEMPO,PSC-UPTEMPO,Mirai,North
2014-09-17T21:00:00Z,1410987600,2014,21,0,260.875,260.875,75.0708,-162.5008,1010.0,-0.08,-999.0,yes,yes,no,300234060237170,UPTEMPO,PSC-UPTEMPO,Mirai,North
2014-09-17T22:00:28Z,1410991229,2014,22,0,260.917,260.917,75.0736,-162.5226,1010.1,-0.12,-999.0,yes,yes,no,300234060237170,UPTEMPO,PSC-UPTEMPO,Mirai,North
2014-09-17T22:59:31Z,1410994771,2014,23,0,260.958,260.958,75.0768,-162.5458,1010.0,-0.12,-999.0,yes,yes,no,300234060237170,UPTEMPO,PSC-UPTEMPO,Mirai,North
2014-09-18T00:00:00Z,1410998400,2014,0,0,261.0,261.0,75.0802,-162.5698,1010.1,-0.16,-999.0,yes,yes,no,300234060237170,UPTEMPO,PSC-UPTEMPO,Mirai,North
2014-09-18T01:00:28Z,1411002029,2014,1,0,261.042,261.042,75.0838,-162.5938,1009.9,-0.16,-999.0,yes,yes,no,300234060237170,UPTEMPO,PSC-UPTEMPO,Mirai,North
2014-09-18T01:59:31Z,1411005571,2014,2,0,261.083,261.083,75.0876,-162.6196,1009.9,-0.16,-999.0,yes,yes,no,300234060237170,UPTEMPO,PSC-UPTEMPO,Mirai,North
2014-09-18T03:00:00Z,1411009200,2014,3,0,261.125,261.125,75.0914,-162.647,1010.1,-0.18,-999.0,yes,yes,no,300234060237170,UPTEMPO,PSC-UPTEMPO,Mirai,North
2014-09-18T04:00:28Z,1411012829,2014,4,0,261.167,261.167,75.0952,-162.6732,1010.1,-0.18,-999.0,yes,yes,no,300234060237170,UPTEMPO,PSC-UPTEMPO,Mirai,North
2014-09-18T04:59:31Z,1411016371,2014,5,0,261.208,261.208,75.0994,-162.6986,1010.4,-0.2,-999.0,yes,yes,no,300234060237170,UPTEMPO,PSC-UPTEMPO,Mirai,North
2014-09-18T06:00:00Z,1411020000,2014,6,0,261.25,261.25,75.1034,-162.723,1010.5,-0.16,-999.0,yes,yes,no,300234060237170,UPTEMPO,PSC-UPTEMPO,Mirai,North
2014-09-18T07:00:28Z,1411023629,2014,7,0,261.292,261.292,75.1072,-162.7486,1010.7,-0.2,-999.0,yes,yes,no,300234060237170,UPTEMPO,PSC-UPTEMPO,Mirai,North
2014-09-18T07:59:31Z,1411027171,2014,8,0,261.333,261.333,75.1104,-162.775,1010.8,-0.2,-999.0,yes,yes,no,300234060237170,UPTEMPO,PSC-UPTEMPO,Mirai,North
2014-09-18T09:00:00Z,1411030800,2014,9,0,261.375,261.375,75.1138,-162.8042,1011.1,-0.2,-999.0,yes,yes,no,300234060237170,UPTEMPO,PSC-UPTEMPO,Mirai,North
2014-09-18T10:00:28Z,1411034429,2014,10,0,261.417,261.417,75.1176,-162.8352,1011.2,-0.2,-999.0,yes,yes,no,300234060237170,UPTEMPO,PSC-UPTEMPO,Mirai,North
2014-09-18T10:59:31Z,1411037971,2014,11,0,261.458,261.458,75.1226,-162.867,1011.1,-0.2,-999.0,yes,yes,no,300234060237170,UPTEMPO,PSC-UPTEMPO,Mirai,North
2014-09-18T12:00:00Z,1411041600,2014,12,0,261.5,261.5,75.1278,-162.8988,1011.0,-0.24,-999.0,yes,yes,no,300234060237170,UPTEMPO,PSC-UPTEMPO,Mirai,North
2014-09-18T13:00:28Z,1411045229,2014,13,0,261.542,261.542,75.1334,-162.9288,1011.3,-0.18,-999.0,yes,yes,no,300234060237170,UPTEMPO,PSC-UPTEMPO,Mirai,North
2014-09-18T13:59:31Z,1411048771,2014,14,0,261.583,261.583,75.1388,-162.9568,1011.4,-0.2,-999.0,yes,yes,no,300234060237170,UPTEMPO,PSC-UPTEMPO,Mirai,North
2014-09-18T15:00:00Z,1411052400,2014,15,0,261.625,261.625,75.1434,-162.9856,1011.5,-0.16,-999.0,yes,yes,no,300234060237170,UPTEMPO,PSC-UPTEMPO,Mirai,North
2014-09-18T16:00:28Z,1411056029,2014,16,0,261.667,261.667,75.148,-163.0142,1011.5,-0.12,-999.0,yes,yes,no,300234060237170,UPTEMPO,PSC-UPTEMPO,Mirai,North
2014-09-18T16:59:31Z,1411059571,2014,17,0,261.708,261.708,75.1526,-163.0438,1011.9,-0.12,-999.0,yes,yes,no,300234060237170,UPTEMPO,PSC-UPTEMPO,Mirai,North
2014-09-18T18:00:00Z,1411063200,2014,18,0,261.75,261.75,75.1568,-163.0752,1012.2,-0.08,-999.0,yes,yes,no,300234060237170,UPTEMPO,PSC-UPTEMPO,Mirai,North
2014-09-18T19:00:28Z,1411066829,2014,19,0,261.792,261.792,75.161,-163.1104,1012.4,-0.16,-999.0,yes,yes,no,300234060237170,UPTEMPO,PSC-UPTEMPO,Mirai,North
2014-09-18T19:59:31Z,1411070371,2014,20,0,261.833,261.833,75.166,-163.1468,1012.4,-0.16,-999.0,yes,yes,no,300234060237170,UPTEMPO,PSC-UPTEMPO,Mirai,North
2014-09-18T21:00:00Z,1411074000,2014,21,0,261.875,261.875,75.1716,-163.1828,1012.8,-0.16,-999.0,yes,yes,no,300234060237170,UPTEMPO,PSC-UPTEMPO,Mirai,North
2014-09-18T22:00:28Z,1411077629,2014,22,0,261.917,261.917,75.178,-163.2164,1012.9,-0.16,-999.0,yes,yes,no,300234060237170,UPTEMPO,PSC-UPTEMPO,Mirai,North
2014-09-18T22:59:31Z,1411081171,2014,23,0,261.958,261.958,75.185,-163.248,1013.1,-0.08,-999.0,yes,yes,no,300234060237170,UPTEMPO,PSC-UPTEMPO,Mirai,North
2014-09-19T00:00:00Z,1411084800,2014,0,0,262.0,262.0,75.192,-163.2756,1013.2,-0.16,-999.0,yes,yes,no,300234060237170,UPTEMPO,PSC-UPTEMPO,Mirai,North
2014-09-19T01:00:28Z,1411088429,2014,1,0,262.042,262.042,75.1992,-163.2998,1013.4,-0.16,-999.0,yes,yes,no,300234060237170,UPTEMPO,PSC-UPTEMPO,Mirai,North
2014-09-19T01:59:31Z,1411091971,2014,2,0,262.083,262.083,75.206,-163.3218,1013.4,-0.06,-999.0,yes,yes,no,300234060237170,UPTEMPO,PSC-UPTEMPO,Mirai,North
2014-09-19T03:00:00Z,1411095600,2014,3,0,262.125,262.125,75.2118,-163.3416,1013.7,-0.08,-999.0,yes,yes,no,300234060237170,UPTEMPO,PSC-UPTEMPO,Mirai,North
2014-09-19T04:00:28Z,1411099229,2014,4,0,262.167,262.167,75.2172,-163.366,1014.0,-0.06,-999.0,yes,yes,no,300234060237170,UPTEMPO,PSC-UPTEMPO,Mirai,North
2014-09-19T04:59:31Z,1411102771,2014,5,0,262.208,262.208,75.2228,-163.3932,1014.4,-0.04,-999.0,yes,yes,no,300234060237170,UPTEMPO,PSC-UPTEMPO,Mirai,North
2014-09-19T06:00:00Z,1411106400,2014,6,0,262.25,262.25,75.2282,-163.4228,1014.4,-0.04,-999.0,yes,yes,no,300234060237170,UPTEMPO,PSC-UPTEMPO,Mirai,North
2014-09-19T07:00:28Z,1411110029,2014,7,0,262.292,262.292,75.2344,-163.4528,1014.5,0.04,-999.0,yes,yes,no,300234060237170,UPTEMPO,PSC-UPTEMPO,Mirai,North
2014-09-19T07:59:31Z,1411113571,2014,8,0,262.333,262.333,75.2416,-163.4822,1014.8,0.08,-999.0,yes,yes,no,300234060237170,UPTEMPO,PSC-UPTEMPO,Mirai,North
2014-09-19T09:00:00Z,1411117200,2014,9,0,262.375,262.375,75.249,-163.5098,1014.7,0.12,-999.0,yes,yes,no,300234060237170,UPTEMPO,PSC-UPTEMPO,Mirai,North
2014-09-19T10:00:28Z,1411120829,2014,10,0,262.417,262.417,75.2572,-163.5352,1014.7,0.2,-999.0,yes,yes,no,300234060237170,UPTEMPO,PSC-UPTEMPO,Mirai,North
2014-09-19T10:59:31Z,1411124371,2014,11,0,262.458,262.458,75.2652,-163.556,1015.0,0.32,-999.0,yes,yes,no,300234060237170,UPTEMPO,PSC-UPTEMPO,Mirai,North
2014-09-19T12:00:00Z,1411128000,2014,12,0,262.5,262.5,75.273,-163.5726,1014.9,0.36,-999.0,yes,yes,no,300234060237170,UPTEMPO,PSC-UPTEMPO,Mirai,North
2014-09-19T13:00:28Z,1411131629,2014,13,0,262.542,262.542,75.2802,-163.5888,1014.7,0.6,-999.0,yes,yes,no,300234060237170,UPTEMPO,PSC-UPTEMPO,Mirai,North
2014-09-19T13:59:31Z,1411135171,2014,14,0,262.583,262.583,75.2872,-163.605,1014.9,0.68,-999.0,yes,yes,no,300234060237170,UPTEMPO,PSC-UPTEMPO,Mirai,North
2014-09-19T15:00:00Z,1411138800,2014,15,0,262.625,262.625,75.2938,-163.6212,1015.0,0.64,-999.0,yes,yes,no,300234060237170,UPTEMPO,PSC-UPTEMPO,Mirai,North